Regional Weather Roundup
Issued by NWS

Home | Current Version | Previous Version | Text Only | Print | Product List | Glossary On
Versions: 1 2 3 4 5 6 7 8 9 10 11 12 13 14 15 16 17 18 19 20 21 22 23 24 25 26 27 28 29 30 31 32 33 34 35 36 37 38 39 40 41 42 43 44 45 46 47 48 49 50
000
ASUS44 KFWD 040401
RWRTX
NORTH TEXAS HOURLY WEATHER ROUNDUP
NATIONAL WEATHER SERVICE FORT WORTH TX
1100 PM CDT FRI JUL 03 2015

NOTE: "FAIR" INDICATES FEW OR NO CLOUDS BELOW 12,000 FEET WITH NO
SIGNIFICANT WEATHER AND/OR OBSTRUCTIONS TO VISIBILITY.

TXZ118-119-040500-
DALLAS/FORT WORTH METROPLEX

CITY           SKY/WX    TMP DP  RH WIND       PRES   REMARKS
DFW AIRPORT    MOCLDY    84  68  58 S10       29.92R
DALLAS LOVE    PTCLDY    86  68  54 S7        29.92R
FTW MEACHAM    PTCLDY    84  69  60 S8        29.92R
DAL-EXECUTIVE  MOCLDY    83  68  60 S6        29.93R
FTW-ALLIANCE   MOCLDY    79  69  71 S3        29.93R
FTW-NAS-JRB    PTCLDY    83  70  64 S9        29.93R
ARLINGTON      MOCLDY    84  68  58 S6        29.93R
GRAND PRAIRIE  PTCLDY    82  71  67 S5        29.94R
MESQUITE       PTCLDY    79  72  79 S5        29.94S
$$

TXZ091>094-102>105-117-120-121-131>134-040500-
NORTH CENTRAL TEXAS

CITY           SKY/WX    TMP DP  RH WIND       PRES   REMARKS
BRIDGEPORT     PTCLDY    77  72  85 CALM      29.95R
DENTON         CLEAR     78  71  79 SE6       29.93R
MCKINNEY       CLEAR     78  72  81 SW7       29.93R
TERRELL        PTCLDY    80  73  79 S5        29.94R
WAXAHACHIE     MOCLDY    80  71  73 S5        29.95S
$$

TXZ083>090-098>101-113>116-127>130-139>142-154-155-040500-
WESTERN NORTH TEXAS

CITY           SKY/WX    TMP DP  RH WIND       PRES   REMARKS
WICHITA FALLS  PTCLDY    79  71  76 CALM      29.92R
WF-KICKAPOO    PTCLDY    81  72  75 CALM      29.94R
VERNON         MOCLDY    77  63  61 CALM      29.94R
ABILENE        PTCLDY    78  64  61 SE8       29.98R
GRAHAM         PTCLDY    79  69  70 CALM      29.93R
MINERAL WELLS  MOCLDY    77  70  79 SE6       29.93R
STEPHENVILLE   MOCLDY    78  67  69 SE3       30.00R
COMANCHE       MOCLDY    77  67  71 S6        29.97R
$$

TXZ143>147-156>162-174-175-040500-
CENTRAL TEXAS

CITY           SKY/WX    TMP DP  RH WIND       PRES   REMARKS
WACO           MOCLDY    81  72  74 S10       29.95R
WACO-TSTC      CLEAR     81  72  74 CALM      29.96R
WACO-MCGREGOR  MOCLDY    79  70  73 S7        29.97R
CORSICANA      MOCLDY    82  72  71 S10       29.96R
MEXIA          PTCLDY    78  72  83 SE15      29.97R
HEARNE         PTCLDY    78  75  91 SE7       29.97R FOG
TEMPLE         MOCLDY    79  70  73 SE10      29.96R
KILLEEN        NOT AVBL
KILLEEN-SKYLRK MOCLDY    81  70  69 S12       29.96S
HAMILTON       MOCLDY    76  68  76 S7        29.99R
$$

TXZ095>097-106>112-122>126-135>138-148>153-164>167-040500-
EAST TEXAS

CITY           SKY/WX    TMP DP  RH WIND       PRES   REMARKS
PARIS          MOCLDY    77  70  78 SE3       29.93S
SULPHUR SPRNGS MOCLDY    80  75  83 S6        29.96R
GILMER         CLOUDY    77  75  93 CALM      29.95R
MINEOLA        PTCLDY    82  75  78 S3        29.95R
TYLER          PTCLDY    81  73  76 S9        29.95R
LONGVIEW       CLEAR     84  74  71 S12       29.95R HX  91
ATHENS         MOCLDY    79  73  83 S6        29.94S
PALESTINE      MOCLDY    81  72  74 S5        29.98R
JACKSONVILLE   MOCLDY    79  71  76 S6        30.00S
HENDERSON      PTCLDY    78  72  81 S3        29.97S
NACOGDOCHES    PTCLDY    79  73  83 S5        29.98R
LUFKIN         PTCLDY    79  74  84 S5        29.98R
$$

SUPPLEMENTAL OBSERVATIONS (CENTRAL)

CITY           SKY/WX    TMP DP  RH WIND       PRES   REMARKS
$$

SUPPLEMENTAL OBSERVATIONS (WEST)

CITY           SKY/WX    TMP DP  RH WIND       PRES   REMARKS
$$

SUPPLEMENTAL OBSERVATIONS (EAST)

CITY           SKY/WX    TMP DP  RH WIND       PRES   REMARKS
$$

SUPPLEMENTAL OBSERVATIONS ARE A COLLECTION OF AUTOMATED INSTRUMENTS
THAT ARE MAINTAINED BY A VARIETY OF FEDERAL AND STATE AGENCIES.
CERTAIN ELEMENTS...SUCH AS HUMIDITY VALUES AND SUSTAINED WIND
SPEEDS...MAY BE APPROXIMATED.




USA.gov is the U.S. government's official web portal to all federal, state and local government web resources and services.